CW9939 Weather Reports


Display with metric or nautical units.
time (UTC)temp
F
wind
direction
speed
MPH
gust
MPH
rain 1hr
in
rain 24hr
in
rain mn
in
humidity
%
barometer
mb
20260507103059 51 0 0.0 0.0 0.00 0.00 0.00 90 1016.2
20260507101601 51 0 0.0 1.0 0.00 0.00 0.00 90 1016.2
20260507094610 51 51 0.0 2.0 0.00 0.00 0.00 90 1016.5
20260507093105 52 0 0.0 1.0 0.00 0.00 0.00 90 1016.8
20260507091641 51 51 0.0 2.0 0.00 0.00 0.00 89 1016.7
20260507090108 51 0 0.0 0.0 0.00 0.00 0.00 89 1016.8
20260507084606 51 0 0.0 1.0 0.00 0.00 0.00 89 1017.0
20260507083100 51 0 0.0 0.0 0.00 0.00 0.00 89 1017.2
20260507081602 51 0 0.0 0.0 0.00 0.00 0.00 88 1017.3
20260507080058 51 0 0.0 0.0 0.00 0.00 0.00 88 1017.4
20260507074600 52 0 0.0 1.0 0.00 0.00 0.00 88 1017.4
20260507073102 52 51 0.0 1.0 0.00 0.00 0.00 88 1017.5
20260507071602 52 0 0.0 0.0 0.00 0.00 0.00 87 1017.5
20260507070108 52 0 0.0 1.0 0.00 0.00 0.00 87 1017.6
20260507064605 52 0 0.0 1.0 0.00 0.00 0.00 87 1017.7
20260507063100 52 0 0.0 0.0 0.00 0.00 0.00 87 1017.6
20260507061600 52 0 0.0 0.0 0.00 0.00 0.00 87 1017.7
20260507060110 52 0 0.0 1.0 0.00 0.00 0.00 86 1017.8
20260507054559 53 0 0.0 0.0 0.00 0.00 0.00 86 1017.7
20260507053101 53 0 0.0 1.0 0.00 0.00 0.00 85 1017.8
20260507051603 53 0 0.0 1.0 0.00 0.00 0.00 84 1017.9
20260507050104 54 0 0.0 1.0 0.00 0.00 0.00 84 1017.8
20260507044602 54 0 0.0 0.0 0.00 0.00 0.00 83 1017.7
20260507043100 55 51 0.0 0.0 0.00 0.00 0.00 82 1017.7
20260507041601 55 0 0.0 0.0 0.00 0.00 0.00 81 1017.5
20260507040105 56 0 0.0 0.0 0.00 0.00 0.00 80 1017.6
20260507034606 57 0 0.0 0.0 0.00 0.00 0.00 78 1017.4
20260507033101 57 0 0.0 0.0 0.00 0.00 0.00 77 1017.4
20260507031600 58 0 0.0 0.0 0.00 0.00 0.00 75 1017.3
20260507030058 59 0 0.0 1.0 0.00 0.00 0.00 74 1017.3
20260507024609 60 51 0.0 2.0 0.00 0.00 0.00 72 1017.1
20260507023101 62 0 0.0 3.0 0.00 0.00 0.00 71 1017.0
20260507021602 63 0 2.0 6.0 0.00 0.00 0.00 69 1016.8
20260507020058 64 59 2.0 5.0 0.00 0.00 0.00 67 1016.7
20260507014601 65 57 2.0 4.0 0.00 0.00 0.00 65 1016.7
20260507013058 66 83 3.0 8.0 0.00 0.00 0.00 64 1016.7
20260507011558 67 74 1.0 7.0 0.00 0.00 0.00 62 1016.6
20260507010114 69 44 3.0 8.0 0.00 0.00 0.00 61 1016.5
20260507004600 69 49 5.0 9.0 0.00 0.00 0.00 60 1016.4
20260507003057 70 57 4.0 10.0 0.00 0.00 0.00 58 1016.4
20260507001601 72 39 5.0 8.0 0.00 0.00 0.00 56 1016.2
20260507000107 73 77 4.0 11.0 0.00 0.00 0.00 56 1016.1
20260506234621 72 28 5.0 11.0 0.00 0.00 0.00 56 1015.9
20260506233104 72 82 4.0 10.0 0.00 0.00 0.00 57 1016.1
20260506231558 71 5 4.0 11.0 0.00 0.00 0.00 57 1016.0
20260506230059 72 36 5.0 11.0 0.00 0.00 0.00 56 1016.1
20260506224600 72 47 4.0 12.0 0.00 0.00 0.00 56 1016.1
20260506223101 73 24 4.0 11.0 0.00 0.00 0.00 55 1016.3
20260506221605 74 33 6.0 12.0 0.00 0.00 0.00 54 1016.3
20260506220100 74 56 5.0 11.0 0.00 0.00 0.00 54 1016.3
20260506214607 75 24 6.0 10.0 0.00 0.00 0.00 51 1016.4
20260506213058 74 57 5.0 11.0 0.00 0.00 0.00 53 1016.5
20260506211600 74 63 6.0 12.0 0.00 0.00 0.00 52 1016.6
20260506204611 73 63 4.0 9.0 0.00 0.00 0.00 44 1017.0
20260506203058 73 49 3.0 9.0 0.00 0.00 0.00 46 1017.0
20260506201600 73 88 3.0 9.0 0.00 0.00 0.00 47 1017.2
20260506200058 72 51 1.0 9.0 0.00 0.00 0.00 49 1017.3
20260506194559 71 157 3.0 9.0 0.00 0.00 0.00 52 1017.4
20260506193058 71 13 3.0 10.0 0.00 0.00 0.00 52 1017.6
20260506191558 70 80 2.0 8.0 0.00 0.00 0.00 56 1017.7
20260506190059 69 30 2.0 9.0 0.00 0.00 0.00 57 1017.8
20260506184558 68 164 1.0 5.0 0.00 0.00 0.00 60 1017.9
20260506183102 66 0 3.0 10.0 0.00 0.00 0.00 59 1018.0
20260506181558 66 173 2.0 9.0 0.00 0.00 0.00 60 1018.1
20260506180057 65 159 2.0 7.0 0.00 0.00 0.00 60 1018.4
20260506174607 64 56 3.0 7.0 0.00 0.00 0.00 61 1018.3
20260506173128 64 55 3.0 10.0 0.00 0.00 0.00 64 1018.5
20260506171600 62 71 1.0 7.0 0.00 0.00 0.00 65 1018.4
20260506164600 60 74 3.0 9.0 0.00 0.00 0.00 70 1018.4
20260506163103 59 0 2.0 5.0 0.00 0.00 0.00 71 1018.2
20260506161611 57 73 2.0 5.0 0.00 0.00 0.00 75 1018.2
20260506160110 56 57 0.0 4.0 0.00 0.00 0.00 79 1018.2
20260506154602 54 57 0.0 3.0 0.00 0.00 0.00 83 1018.0
20260506153103 54 0 0.0 2.0 0.00 0.00 0.00 87 1018.1
20260506151602 52 56 0.0 1.0 0.00 0.00 0.00 89 1018.1
20260506150103 51 0 0.0 2.0 0.00 0.00 0.00 91 1018.0
20260506144613 50 0 0.0 1.0 0.00 0.00 0.00 91 1018.0
20260506143101 49 0 0.0 0.0 0.00 0.00 0.00 92 1018.1
20260506141559 48 0 0.0 1.0 0.00 0.00 0.00 92 1017.8
20260506140122 47 0 0.0 1.0 0.00 0.00 0.00 92 1017.8
20260506134559 46 0 0.0 1.0 0.00 0.03 0.00 92 1017.6
20260506133134 44 0 0.0 1.0 0.00 0.03 0.00 92 1017.4
20260506131600 44 0 0.0 1.0 0.00 0.03 0.00 91 1017.5
20260506130138 44 0 0.0 1.0 0.00 0.03 0.00 91 1017.2
20260506124557 44 0 0.0 0.0 0.00 0.05 0.00 91 1017.2
20260506123101 44 0 0.0 0.0 0.00 0.05 0.00 91 1017.2
20260506121601 44 0 0.0 0.0 0.00 0.05 0.00 91 1017.2
20260506120104 44 0 0.0 0.0 0.00 0.05 0.00 91 1017.2
20260506114607 45 0 0.0 0.0 0.00 0.08 0.00 91 1017.1
20260506113058 45 0 0.0 0.0 0.00 0.08 0.00 91 1016.9
20260506111558 44 0 0.0 0.0 0.00 0.08 0.00 90 1017.0
20260506104605 44 0 0.0 0.0 0.00 0.17 0.00 90 1017.0